This demonstration page uses our WeatherBlox Daily Observations layout. Learn more.

Left ArrowRight Arrow

44.89941, -97.11507

Hourly Observations for July 31, 2020

Temp ( °F °C ) Dew Point ( °F °C ) Humidity (%) Winds ( mph kmh ) Pressure ( in mb ) Visibility ( mi km ) Precip ( " mm )
12:53 am 00:53 Clear 63 17.2 59 15 87 87 Calm 30.05 1018 10 16 0.00 0.00
1:53 am 01:53 Clear 62 16.7 59 15 90 90 Calm 30.05 1018 10 16 0.00 0.00
2:53 am 02:53 Clear 62 16.7 59 15 90 90 Calm 30.05 1018 10 16 0.00 0.00
3:53 am 03:53 Clear 60 15.6 58 14.4 93 93 Calm 30.05 1018 10 16 0.00 0.00
4:53 am 04:53 Clear 60 15.6 58 14.4 93 93 Calm 30.05 1018 10 16 0.00 0.00
5:53 am 05:53 Clear 59 15 58 14.4 96 96 Calm 30.05 1018 10 16 0.00 0.00
6:53 am 06:53 Sunny 60 15.6 58 14.4 93 93 SSE 5 7 30.05 1018 10 16 0.00 0.00
7:53 am 07:53 Sunny 64 17.8 61 16.1 90 90 SSE 5 7 30.05 1018 10 16 0.00 0.00
8:53 am 08:53 Sunny 68 20 63 17.2 84 84 Calm 30.06 1018 10 16 0.00 0.00
9:53 am 09:53 Sunny 73 22.8 63 17.2 71 71 S 3 6 30.05 1018 10 16 0.00 0.00
10:53 am 10:53 Sunny 76 24.4 62 16.7 62 62 W 8 13 30.04 1017 10 16 0.00 0.00
11:53 am 11:53 Mostly Sunny 77 25 61 16.1 58 58 SW 8 13 30.03 1017 10 16 0.00 0.00
12:53 pm 12:53 Mostly Sunny 78 25.6 62 16.7 58 58 SW 8 13 30.03 1017 10 16 0.00 0.00
1:53 pm 13:53 Sunny 81 27.2 63 17.2 54 54 SW 8 13 30.02 1017 10 16 0.00 0.00
2:53 pm 14:53 Sunny 81 27.2 62 16.7 53 53 SW 8 13 30.01 1016 10 16 0.00 0.00
3:53 pm 15:53 Sunny 82 27.8 64 17.8 55 55 SSW 9 15 30.00 1016 10 16 0.00 0.00
4:53 pm 16:53 Sunny 82 27.8 64 17.8 55 55 SSW 6 9 29.99 1016 10 16 0.00 0.00
5:53 pm 17:53 Sunny 82 27.8 65 18.3 56 56 SSW 8 13 29.97 1015 10 16 0.00 0.00
6:53 pm 18:53 Mostly Cloudy 81 27.2 65 18.3 58 58 S 9 15 29.96 1014 10 16 0.00 0.00
7:53 pm 19:53 Sunny 79 26.1 66 18.9 65 65 S 8 13 29.94 1014 10 16 0.00 0.00
8:53 pm 20:53 Mostly Sunny 76 24.4 66 18.9 72 72 S 9 15 29.93 1014 10 16 0.00 0.00
9:53 pm 21:53 Clear 74 23.3 66 18.9 76 76 SSW 8 13 29.93 1014 10 16 0.00 0.00
10:53 pm 22:53 Mostly Cloudy 71 21.7 63 17.2 76 76 WNW 12 19 29.97 1015 10 16 0.00 0.00
11:53 pm 23:53 Clear 68 20 63 17.2 84 84 W 9 15 29.93 1013 10 16 0.00 0.00

Powered by AerisWeather